Regional Weather Roundup
Issued by NWS Green Bay, WI

Home | Current Version | Previous Version | Text Only | Print | Product List | Glossary On
Versions: 1 2 3 4 5 6 7 8 9 10 11 12 13 14 15 16 17 18 19 20 21 22 23 24 25 26 27 28 29 30 31 32 33 34 35 36 37 38 39 40 41 42 43 44 45 46 47 48 49 50
191
ASUS43 KGRB 272111
RWRGRB

NORTH-CENTRAL AND NORTHEAST WISCONSIN REGIONAL WEATHER ROUNDUP
NATIONAL WEATHER SERVICE GREEN BAY WI
400 PM CDT TUE JUN 27 2017

WIZ005-009-010>012-018-019-272200-
NORTH CENTRAL WISCONSIN

CITY           SKY/WX    TMP DP  RH WIND       PRES   REMARKS
IRONWOOD       MOSUNNY   72  47  40 SW14      29.93F
MANITOWISH WTR MOSUNNY   72  46  40 SW13G18   29.96F
ARBOR VITAE    MOSUNNY   72  48  42 SW9       29.96F
EAGLE RIVER    MOSUNNY   71  44  37 W13       29.96F
LAND O LAKES   MOSUNNY   73  42  31 SW6       29.98F
RHINELANDER    SUNNY     73  47  39 W9        29.99F
PHILLIPS       SUNNY     71  48  44 SW9       29.97F
ANTIGO         MOSUNNY   71  50  47 W10       30.00F
TOMAHAWK       NOT AVBL
MERRILL        MOSUNNY   72  48  43 W10       30.00S
$$

WIZ013-073-272200-
NORTHEAST WISCONSIN

CITY           SKY/WX    TMP DP  RH WIND       PRES   REMARKS
IRON MOUNTAIN  MOSUNNY   73  45  36 SE6       29.95F
MARINETTE      MOSUNNY   71  54  54 S8        29.98F
OCONTO         MOSUNNY   75  48  39 W6        29.97F
$$

WIZ017-030-035>037-045-272200-
CENTRAL WISCONSIN

CITY           SKY/WX    TMP DP  RH WIND       PRES   REMARKS
MEDFORD        MOSUNNY   71  47  42 SW9       30.00F
WAUSAU         SUNNY     71  46  40 S5        29.99F
MOSINEE        PTSUNNY   73  46  38 SW8       30.02F
MARSHFIELD     MOSUNNY   73  47  39 SW6       30.00F
WISC RAPIDS    PTSUNNY   73  48  41 S10       30.02F
STEVENS POINT  MOSUNNY   72  45  37 W7        30.01F
WAUPACA        PTSUNNY   76  45  33 W5        30.01F
SHAWANO        NOT AVBL
CLINTONVILLE   SUNNY     73  41  31 W10       30.00S
WAUTOMA        MOSUNNY   75  46  35 W10       30.02F
$$

WIZ038-039-048-051-272200-
FOX VALLEY

CITY           SKY/WX    TMP DP  RH WIND       PRES   REMARKS
NWS GREEN BAY  MOSUNNY   75  51  43 W9        29.99F
APPLETON       PTSUNNY   72  41  33 W7        30.00F
OSHKOSH        MOSUNNY   74  47  38 W8        30.01F
FOND DU LAC    MOSUNNY   73  43  33 W7        30.02F
$$

WIZ022-050-052-272200-
EAST CENTRAL WISCONSIN

CITY           SKY/WX    TMP DP  RH WIND       PRES   REMARKS
EPHRAIM        FAIR      68  52  56 S9        29.98F
WASHINGTON ISL FAIR      66  53  63 S8        29.99F
STURGEON BAY     N/A     71  54  54 SE13      29.99F
MANITOWOC      MOSUNNY   73  47  39 W8        30.01F
SHEBOYGAN      SUNNY     74  50  42 W7        30.02F
$$

LMZ563-521-522-541>543-272200-
LAKESHORE

STATION/POSITION TIME  TEMP    WIND        PRES    VSBY  WAVE
                       AIR SEA DIR/SP/G                  HT/PER
                 (UTC) (F)     (DEG/KT/KT) (MB)    (MI)  (FT/S)
SHEBOYGAN LKSHOR 2100   59     160/ 16/ 18 1016.4F
KEWAUNEE LKSHORE 2048   56     180/ 11/ 12 1015.7F
NORTHPORT PIER   2040   66     150/ 10/ 16 1015.6F
N MID LAKE BUOY  1950   58 58  190/ 10/ 12 1016.9          1
S GREEN BAY BUOY 2100   70     190/  6/  8 1015.0
SISTER BAY LKSHO 2008   78        CALM       N/A
CHAMBERS ISLAND  2040   71     170/  7/ 11 1014.9F
MENOMINEE LKSHOR 2048          170/  9/ 13 1014.3F
$$




USA.gov is the U.S. government's official web portal to all federal, state and local government web resources and services.